EZY9800 EETN-EGCC

Flight info

Callsign EZY9800
Flight time N/A
Altitude 38000
Route OSMUR DCT NEBSI DCT ROGMI DCT RISMA DCT LME DCT DIV DCT LIBSO
Aircraft A20N/M-SDE2E3FGHIRWXY/LB1

Departure

Time 2026-05-06 15:01
Airport Lennart Meri Tallinn Airport (EETN)

Arrival

Time N/A
Airport Manchester Airport (EGCC)
Time Latitude Longitude Altitude Speed Heading
2026-05-06 14:55 59.41494 24.85793 151 ft 31 kts 91°
2026-05-06 14:55 59.41494 24.86230 151 ft 32 kts 90°
2026-05-06 14:56 59.41491 24.86616 152 ft 18 kts 101°
2026-05-06 14:56 59.41414 24.86702 152 ft 2 kts 181°
2026-05-06 14:56 59.41398 24.86702 152 ft 9 kts 181°
2026-05-06 14:56 59.41320 24.86651 152 ft 13 kts 260°
2026-05-06 14:57 59.41317 24.86557 152 ft 0 kts 270°
2026-05-06 15:00 59.41317 24.86453 152 ft 31 kts 271°
2026-05-06 15:00 59.41323 24.85524 151 ft 102 kts 269°
2026-05-06 15:01 59.41327 24.83733 151 ft 158 kts 272°
2026-05-06 15:01 59.41342 24.81531 645 ft 165 kts 271°
2026-05-06 15:01 59.41291 24.79247 1260 ft 173 kts 269°
2026-05-06 15:01 59.41174 24.76878 1947 ft 177 kts 263°
2026-05-06 15:02 59.40931 24.74532 2552 ft 182 kts 259°
2026-05-06 15:02 59.40631 24.71990 2981 ft 199 kts 259°
2026-05-06 15:02 59.40298 24.69215 3326 ft 222 kts 258°
2026-05-06 15:02 59.39929 24.66166 3819 ft 239 kts 258°
2026-05-06 15:03 59.39529 24.62893 4328 ft 255 kts 257°
2026-05-06 15:03 59.39107 24.59439 5055 ft 263 kts 257°
2026-05-06 15:03 59.38681 24.55974 5887 ft 265 kts 257°
2026-05-06 15:03 59.38252 24.52478 6668 ft 269 kts 257°
2026-05-06 15:04 59.37814 24.48920 7433 ft 273 kts 257°
2026-05-06 15:04 59.37368 24.45312 8208 ft 276 kts 257°
2026-05-06 15:04 59.36915 24.41655 8983 ft 280 kts 257°
2026-05-06 15:04 59.36453 24.37936 9743 ft 283 kts 258°
2026-05-06 15:05 59.35986 24.34180 10457 ft 288 kts 257°
2026-05-06 15:05 59.35493 24.30215 10873 ft 304 kts 257°
2026-05-06 15:05 59.34984 24.26112 11341 ft 315 kts 257°
2026-05-06 15:05 59.34468 24.21983 12116 ft 315 kts 257°
2026-05-06 15:06 59.33959 24.17899 12913 ft 312 kts 258°
2026-05-06 15:06 59.33445 24.13757 13638 ft 313 kts 257°
2026-05-06 15:06 59.32930 24.09634 14359 ft 313 kts 257°
2026-05-06 15:06 59.32412 24.05520 15057 ft 314 kts 257°
2026-05-06 15:07 59.31885 24.01385 15680 ft 317 kts 257°
2026-05-06 15:07 59.31351 23.97206 16371 ft 318 kts 257°
2026-05-06 15:07 59.30818 23.93040 17055 ft 318 kts 256°
2026-05-06 15:07 59.30290 23.88918 17700 ft 318 kts 256°
2026-05-06 15:08 59.29750 23.84706 18341 ft 319 kts 256°
2026-05-06 15:08 59.29210 23.80510 18964 ft 319 kts 256°
2026-05-06 15:08 59.28675 23.76360 19566 ft 320 kts 256°
2026-05-06 15:08 59.28132 23.72166 20163 ft 320 kts 256°
2026-05-06 15:09 59.27588 23.67966 20747 ft 320 kts 256°
2026-05-06 15:09 59.27041 23.63763 21318 ft 320 kts 256°
2026-05-06 15:09 59.26492 23.59555 21864 ft 321 kts 255°
2026-05-06 15:09 59.25938 23.55328 22388 ft 322 kts 255°
2026-05-06 15:10 59.25390 23.51154 22891 ft 322 kts 255°
2026-05-06 15:10 59.24834 23.46919 23383 ft 323 kts 255°
2026-05-06 15:10 59.24296 23.42646 23861 ft 324 kts 256°
2026-05-06 15:10 59.23770 23.38429 24313 ft 325 kts 255°
2026-05-06 15:11 59.23232 23.34133 24761 ft 327 kts 255°
2026-05-06 15:11 59.22691 23.29832 25242 ft 328 kts 255°
2026-05-06 15:11 59.22146 23.25521 25715 ft 329 kts 254°
2026-05-06 15:11 59.21594 23.21161 26175 ft 330 kts 254°
2026-05-06 15:12 59.21044 23.16835 26620 ft 332 kts 254°
2026-05-06 15:12 59.20490 23.12491 27040 ft 333 kts 254°
2026-05-06 15:12 59.19927 23.08079 27397 ft 336 kts 253°
2026-05-06 15:12 59.19365 23.03686 27691 ft 341 kts 253°
2026-05-06 15:13 59.18783 22.99162 27976 ft 345 kts 253°
2026-05-06 15:13 59.18199 22.94618 28260 ft 350 kts 253°
2026-05-06 15:13 59.17601 22.90000 28576 ft 353 kts 253°
2026-05-06 15:13 59.17004 22.85407 28915 ft 354 kts 253°
2026-05-06 15:14 59.16396 22.80743 29257 ft 356 kts 253°
2026-05-06 15:14 59.15785 22.76067 29609 ft 357 kts 252°
2026-05-06 15:14 59.15178 22.71434 29967 ft 358 kts 252°
2026-05-06 15:14 59.14560 22.66741 30308 ft 360 kts 252°
2026-05-06 15:15 59.13937 22.62021 30638 ft 362 kts 252°
2026-05-06 15:15 59.13311 22.57293 30954 ft 363 kts 252°
2026-05-06 15:15 59.12675 22.52505 31264 ft 365 kts 252°
2026-05-06 15:15 59.12047 22.47793 31562 ft 366 kts 252°
2026-05-06 15:16 59.11405 22.42990 31852 ft 368 kts 252°
2026-05-06 15:16 59.10754 22.38130 32126 ft 370 kts 252°
2026-05-06 15:16 59.10112 22.33354 32384 ft 371 kts 252°
2026-05-06 15:16 59.09454 22.28478 32703 ft 370 kts 252°
2026-05-06 15:17 59.08799 22.23634 33042 ft 368 kts 252°
2026-05-06 15:17 59.08157 22.18898 33362 ft 367 kts 251°
2026-05-06 15:17 59.07508 22.14128 33671 ft 366 kts 251°
2026-05-06 15:17 59.06858 22.09375 33977 ft 365 kts 251°
2026-05-06 15:18 59.06208 22.04627 34278 ft 364 kts 251°
2026-05-06 15:18 59.05557 21.99892 34571 ft 363 kts 251°
2026-05-06 15:18 59.04905 21.95156 34854 ft 362 kts 251°
2026-05-06 15:18 59.04258 21.90479 35119 ft 361 kts 251°
2026-05-06 15:19 59.03612 21.85828 35376 ft 360 kts 251°
2026-05-06 15:19 59.02958 21.81118 35607 ft 360 kts 251°
2026-05-06 15:19 59.02316 21.76513 35790 ft 359 kts 251°
2026-05-06 15:19 59.01657 21.71802 35948 ft 359 kts 251°
2026-05-06 15:20 59.01009 21.67186 36089 ft 360 kts 251°
2026-05-06 15:20 59.00348 21.62490 36197 ft 361 kts 251°
2026-05-06 15:20 58.99691 21.57849 36271 ft 361 kts 251°
2026-05-06 15:21 58.98360 21.48465 36412 ft 362 kts 252°
2026-05-06 15:21 58.97018 21.39058 36549 ft 363 kts 252°
2026-05-06 15:22 58.95670 21.29663 36681 ft 365 kts 251°
2026-05-06 15:22 58.94303 21.20185 36824 ft 366 kts 251°
2026-05-06 15:23 58.92937 21.10779 36964 ft 366 kts 251°
2026-05-06 15:23 58.91557 21.01333 37099 ft 367 kts 251°
2026-05-06 15:24 58.89951 20.92010 37204 ft 367 kts 247°
2026-05-06 15:24 58.87936 20.82916 37329 ft 368 kts 245°
2026-05-06 15:25 58.85905 20.73938 37448 ft 369 kts 245°
2026-05-06 15:25 58.83839 20.64873 37558 ft 370 kts 245°
2026-05-06 15:26 58.81759 20.55793 37667 ft 371 kts 245°
2026-05-06 15:26 58.79673 20.46734 37761 ft 372 kts 245°
2026-05-06 15:27 58.77562 20.37616 37855 ft 374 kts 245°
2026-05-06 15:27 58.75436 20.28467 37942 ft 375 kts 244°
2026-05-06 15:28 58.73298 20.19294 38004 ft 377 kts 244°
2026-05-06 15:28 58.71148 20.10111 38007 ft 378 kts 244°
2026-05-06 15:29 58.68986 20.00924 38008 ft 380 kts 244°
2026-05-06 15:29 58.66811 19.91716 38008 ft 380 kts 244°
2026-05-06 15:30 58.64624 19.82499 38008 ft 380 kts 244°
2026-05-06 15:30 58.62438 19.73329 38009 ft 381 kts 244°
2026-05-06 15:31 58.60234 19.64123 38007 ft 381 kts 244°
2026-05-06 15:31 58.58026 19.54942 38004 ft 381 kts 244°
2026-05-06 15:32 58.54697 19.41163 38002 ft 381 kts 244°
2026-05-06 15:32 58.52471 19.32003 38002 ft 381 kts 243°
2026-05-06 15:33 58.50232 19.22824 38002 ft 380 kts 243°
2026-05-06 15:33 58.48005 19.13734 38002 ft 380 kts 243°
2026-05-06 15:34 58.45769 19.04642 38002 ft 380 kts 243°
2026-05-06 15:34 58.43510 18.95502 38002 ft 380 kts 243°
2026-05-06 15:35 58.41268 18.86463 38002 ft 380 kts 243°
2026-05-06 15:35 58.39006 18.77360 38002 ft 381 kts 243°
2026-05-06 15:36 58.36723 18.68267 38002 ft 381 kts 243°
2026-05-06 15:36 58.34449 18.59238 38003 ft 382 kts 243°
2026-05-06 15:37 58.32167 18.50158 38002 ft 382 kts 243°
2026-05-06 15:37 58.29850 18.41016 38008 ft 383 kts 243°
2026-05-06 15:38 58.27536 18.31897 38006 ft 383 kts 242°
2026-05-06 15:38 58.25214 18.22819 38005 ft 383 kts 242°
2026-05-06 15:39 58.22890 18.13757 38008 ft 384 kts 242°
2026-05-06 15:39 58.20562 18.04621 38007 ft 385 kts 244°